When you browse on this site, cookies collect data to enhance your experience and personalize the content and advertising you see.
Visit our Privacy Policy to learn more. By continuing to use the site, you agree to this use of cookies and data.
  • In Deutschland
  • Länderverzeichnis
  • Für 7 Tage
  • Wassertemperatur
  • Wetterkarte
  • Widgets
  • user-avatar
    Anmelden

    Stündliche Wetter Altbach

    Heute, 15 September, Sonntag

    Zeit Temperatur Niederschläge Wind Luftdruck Luftfeuchtigkeit
    00:00 +16°C° 0 mm 1 m/S 742 mmHg 90%
    01:00 +16°C° 0 mm 1 m/S 742 mmHg 92%
    02:00 +16°C° 0 mm 1 m/S 742 mmHg 92%
    03:00 +16°C° 0 mm 1 m/S 742 mmHg 92%
    04:00 +16°C° 0 mm 1 m/S 741 mmHg 93%
    05:00 +16°C° 0 mm 1 m/S 741 mmHg 93%
    06:00 +16°C° 0 mm 1 m/S 741 mmHg 92%
    07:00 +18°C° 0 mm 1 m/S 741 mmHg 92%
    08:00 +20°C° 0 mm 1 m/S 741 mmHg 85%
    09:00 +22°C° 0 mm 1 m/S 741 mmHg 78%
    10:00 +24°C° 0 mm 1 m/S 741 mmHg 70%
    11:00 +25°C° 0 mm 1 m/S 741 mmHg 66%
    12:00 +26°C° 0 mm 1 m/S 741 mmHg 63%
    13:00 +27°C° 0 mm 1 m/S 740 mmHg 59%
    14:00 +27°C° 0 mm 1 m/S 740 mmHg 59%
    15:00 +28°C° 0 mm 1 m/S 740 mmHg 59%
    16:00 +28°C° 0 mm 1 m/S 739 mmHg 58%
    17:00 +26°C° 0 mm 1 m/S 739 mmHg 65%
    18:00 +24°C° 0 mm 1 m/S 739 mmHg 72%
    19:00 +22°C° 0 mm 1 m/S 739 mmHg 79%
    20:00 +21°C° 0 mm 1 m/S 739 mmHg 81%
    21:00 +18°C° 0 mm 0 m/S 739 mmHg 82%
    22:00 +18°C° 0 mm 0 m/S 739 mmHg 83%
    23:00 +17°C° 0 mm 0 m/S 739 mmHg 84%

    Morgen, 16 September, Montag

    Zeit Temperatur Niederschläge Wind Luftdruck Luftfeuchtigkeit
    00:00 +17°C° 0 mm 0 m/S 739 mmHg 84%
    01:00 +16°C° 0 mm 0 m/S 739 mmHg 85%
    02:00 +16°C° 0 mm 0 m/S 739 mmHg 86%
    03:00 +16°C° 0 mm 0 m/S 738 mmHg 87%
    04:00 +15°C° 0 mm 0 m/S 738 mmHg 88%
    05:00 +16°C° 0 mm 0 m/S 738 mmHg 88%
    06:00 +16°C° 0 mm 0 m/S 738 mmHg 87%
    07:00 +16°C° 0 mm 0 m/S 738 mmHg 87%
    08:00 +18°C° 0 mm 0 m/S 738 mmHg 80%
    09:00 +22°C° 0 mm 1 m/S 738 mmHg 73%
    10:00 +24°C° 0 mm 1 m/S 738 mmHg 66%
    11:00 +25°C° 0 mm 1 m/S 738 mmHg 62%
    12:00 +26°C° 0 mm 2 m/S 737 mmHg 58%
    13:00 +26°C° 0 mm 2 m/S 737 mmHg 54%
    14:00 +26°C° 0 mm 3 m/S 737 mmHg 53%
    15:00 +26°C° 0 mm 3 m/S 736 mmHg 52%
    16:00 +26°C° 0 mm 3 m/S 736 mmHg 51%
    17:00 +24°C° 0 mm 3 m/S 736 mmHg 55%
    18:00 +21°C° 0 mm 2 m/S 736 mmHg 59%
    19:00 +20°C° 0 mm 1 m/S 736 mmHg 62%
    20:00 +19°C° 0 mm 1 m/S 736 mmHg 63%
    21:00 +18°C° 0 mm 1 m/S 736 mmHg 64%
    22:00 +16°C° 0 mm 1 m/S 737 mmHg 64%
    23:00 +16°C° 0 mm 1 m/S 736 mmHg 67%

    übermorgen, 17 September, Dienstag

    Zeit Temperatur Niederschläge Wind Luftdruck Luftfeuchtigkeit
    00:00 +15°C° 0 mm 1 m/S 736 mmHg 70%
    01:00 +14°C° 0 mm 0 m/S 736 mmHg 72%
    02:00 +14°C° 0 mm 0 m/S 736 mmHg 74%
    03:00 +14°C° 0 mm 0 m/S 736 mmHg 76%
    04:00 +14°C° 0 mm 0 m/S 736 mmHg 77%
    05:00 +15°C° 0 mm 1 m/S 736 mmHg 78%
    06:00 +15°C° 0 mm 1 m/S 736 mmHg 79%
    07:00 +16°C° 0 mm 1 m/S 737 mmHg 80%
    08:00 +16°C° 0 mm 2 m/S 737 mmHg 80%
    09:00 +16°C° 0 mm 2 m/S 737 mmHg 80%
    10:00 +17°C° 0 mm 2 m/S 738 mmHg 79%
    11:00 +18°C° 0 mm 2 m/S 737 mmHg 74%
    12:00 +19°C° 0 mm 2 m/S 737 mmHg 68%
    13:00 +19°C° 0 mm 2 m/S 737 mmHg 63%
    14:00 +20°C° 0 mm 2 m/S 737 mmHg 59%
    15:00 +20°C° 0 mm 3 m/S 737 mmHg 55%
    16:00 +20°C° 0 mm 3 m/S 737 mmHg 51%
    17:00 +18°C° 0 mm 2 m/S 737 mmHg 56%
    18:00 +16°C° 0 mm 2 m/S 737 mmHg 60%
    19:00 +14°C° 0 mm 1 m/S 737 mmHg 65%
    20:00 +13°C° 0 mm 1 m/S 737 mmHg 67%
    21:00 +12°C° 0 mm 1 m/S 738 mmHg 70%
    22:00 +11°C° 0 mm 1 m/S 738 mmHg 72%
    23:00 +11°C° 0 mm 1 m/S 738 mmHg 75%

    18 September, Mittwoch

    Zeit Temperatur Niederschläge Wind Luftdruck Luftfeuchtigkeit
    00:00 +10°C° 0 mm 1 m/S 739 mmHg 78%
    01:00 +10°C° 0 mm 1 m/S 739 mmHg 80%
    02:00 +9°C° 0 mm 1 m/S 739 mmHg 83%
    03:00 +9°C° 0 mm 1 m/S 739 mmHg 85%
    04:00 +8°C° 0 mm 1 m/S 739 mmHg 88%
    05:00 +8°C° 0 mm 1 m/S 739 mmHg 87%
    06:00 +8°C° 0 mm 1 m/S 739 mmHg 86%
    07:00 +8°C° 0 mm 1 m/S 740 mmHg 85%
    08:00 +9°C° 0 mm 2 m/S 740 mmHg 77%
    09:00 +12°C° 0 mm 2 m/S 740 mmHg 68%
    10:00 +12°C° 0 mm 3 m/S 740 mmHg 59%
    11:00 +13°C° 0 mm 3 m/S 740 mmHg 55%
    12:00 +14°C° 0 mm 3 m/S 739 mmHg 50%
    13:00 +16°C° 0 mm 3 m/S 739 mmHg 45%
    14:00 +16°C° 0 mm 3 m/S 739 mmHg 46%
    15:00 +16°C° 0 mm 3 m/S 739 mmHg 47%
    16:00 +16°C° 0 mm 3 m/S 739 mmHg 48%
    17:00 +13°C° 0 mm 3 m/S 739 mmHg 54%
    18:00 +12°C° 0 mm 2 m/S 739 mmHg 60%
    19:00 +10°C° 0 mm 2 m/S 740 mmHg 66%
    20:00 +9°C° 0 mm 2 m/S 740 mmHg 68%
    21:00 +8°C° 0 mm 2 m/S 741 mmHg 70%
    22:00 +8°C° 0 mm 2 m/S 741 mmHg 72%
    23:00 +8°C° 0 mm 1 m/S 741 mmHg 73%

    19 September, Donnerstag

    Zeit Temperatur Niederschläge Wind Luftdruck Luftfeuchtigkeit
    00:00 +8°C° 0 mm 1 m/S 741 mmHg 75%
    01:00 +7°C° 0 mm 1 m/S 741 mmHg 76%
    02:00 +7°C° 0 mm 1 m/S 741 mmHg 78%
    03:00 +7°C° 0 mm 1 m/S 741 mmHg 80%
    04:00 +6°C° 0 mm 1 m/S 741 mmHg 83%
    05:00 +6°C° 0 mm 1 m/S 741 mmHg 83%
    06:00 +7°C° 0 mm 1 m/S 741 mmHg 83%
    07:00 +7°C° 0 mm 1 m/S 742 mmHg 83%
    08:00 +8°C° 0 mm 2 m/S 742 mmHg 76%
    09:00 +10°C° 0 mm 2 m/S 742 mmHg 69%
    10:00 +11°C° 0 mm 3 m/S 742 mmHg 63%
    11:00 +13°C° 0 mm 3 m/S 742 mmHg 58%
    12:00 +14°C° 0 mm 3 m/S 742 mmHg 53%
    13:00 +16°C° 0 mm 3 m/S 742 mmHg 48%
    14:00 +16°C° 0 mm 3 m/S 742 mmHg 49%
    15:00 +15°C° 0 mm 4 m/S 742 mmHg 49%
    16:00 +15°C° 0 mm 4 m/S 742 mmHg 50%
    17:00 +13°C° 0 mm 3 m/S 742 mmHg 56%
    18:00 +11°C° 0 mm 3 m/S 742 mmHg 63%
    19:00 +9°C° 0 mm 2 m/S 743 mmHg 69%
    20:00 +8°C° 0 mm 2 m/S 743 mmHg 70%
    21:00 +8°C° 0 mm 2 m/S 744 mmHg 72%
    22:00 +7°C° 0 mm 2 m/S 744 mmHg 74%
    23:00 +7°C° 0 mm 2 m/S 744 mmHg 76%

    20 September, Freitag

    Zeit Temperatur Niederschläge Wind Luftdruck Luftfeuchtigkeit
    00:00 +6°C° 0 mm 2 m/S 744 mmHg 78%
    01:00 +7°C° 0 mm 1 m/S 744 mmHg 80%
    02:00 +7°C° 0 mm 1 m/S 744 mmHg 82%
    03:00 +6°C° 0 mm 1 m/S 744 mmHg 83%
    04:00 +6°C° 0 mm 1 m/S 743 mmHg 85%
    05:00 +6°C° 0 mm 1 m/S 743 mmHg 84%
    06:00 +7°C° 0 mm 1 m/S 743 mmHg 84%
    07:00 +7°C° 0 mm 1 m/S 743 mmHg 83%
    08:00 +8°C° 0 mm 2 m/S 744 mmHg 75%
    09:00 +10°C° 0 mm 2 m/S 744 mmHg 66%
    10:00 +12°C° 0 mm 3 m/S 744 mmHg 58%
    11:00 +13°C° 0 mm 3 m/S 743 mmHg 55%
    12:00 +14°C° 0 mm 3 m/S 743 mmHg 52%
    13:00 +16°C° 0 mm 3 m/S 743 mmHg 48%
    14:00 +16°C° 0 mm 3 m/S 742 mmHg 49%
    15:00 +16°C° 0 mm 3 m/S 742 mmHg 50%
    16:00 +16°C° 0 mm 3 m/S 742 mmHg 51%
    17:00 +13°C° 0 mm 3 m/S 742 mmHg 57%
    18:00 +13°C° 0 mm 2 m/S 742 mmHg 64%
    19:00 +10°C° 0 mm 2 m/S 742 mmHg 70%
    20:00 +9°C° 0 mm 2 m/S 742 mmHg 71%
    21:00 +9°C° 0 mm 1 m/S 742 mmHg 73%
    22:00 +9°C° 0 mm 1 m/S 742 mmHg 74%
    23:00 +8°C° 0 mm 1 m/S 742 mmHg 75%
    Mehr zeigen